When you browse on this site, cookies collect data to enhance your experience and personalize the content and advertising you see.
Visit our Privacy Policy to learn more. By continuing to use the site, you agree to this use of cookies and data.
  • en Suisse
  • Liste des pays
  • À 7 jours
  • Température de l'eau
  • Carte météo
  • Widgets météo
  • user-avatar
    Se connecter

    Météo par heure à Morpeth

    Ce jour, 6 Juin, Samedi

    Heure Température Précipitation Vent Pression Humidité
    00:00 +5°C° 0.7 mm 9 m/s 734 mmHg 91%
    01:00 +5°C° 0.2 mm 9 m/s 733 mmHg 90%
    02:00 +6°C° 0.2 mm 9 m/s 733 mmHg 90%
    03:00 +6°C° 0.2 mm 9 m/s 733 mmHg 89%
    04:00 +6°C° 0.7 mm 10 m/s 733 mmHg 89%
    05:00 +6°C° 0.7 mm 11 m/s 733 mmHg 90%
    06:00 +5°C° 0.7 mm 13 m/s 733 mmHg 90%
    07:00 +5°C° 0.8 mm 12 m/s 734 mmHg 89%
    08:00 +7°C° 0.8 mm 11 m/s 735 mmHg 88%
    09:00 +7°C° 0.8 mm 11 m/s 736 mmHg 86%
    10:00 +8°C° 0.5 mm 10 m/s 737 mmHg 85%
    11:00 +8°C° 0.5 mm 10 m/s 738 mmHg 83%
    12:00 +10°C° 0.5 mm 9 m/s 739 mmHg 82%
    13:00 +10°C° 0.3 mm 9 m/s 739 mmHg 78%
    14:00 +11°C° 0.3 mm 8 m/s 740 mmHg 74%
    15:00 +12°C° 0.3 mm 8 m/s 741 mmHg 71%
    16:00 +12°C° 0 mm 7 m/s 742 mmHg 71%
    17:00 +11°C° 0 mm 6 m/s 742 mmHg 71%
    18:00 +11°C° 0 mm 6 m/s 743 mmHg 72%
    19:00 +10°C° 0 mm 5 m/s 743 mmHg 77%
    20:00 +8°C° 0 mm 4 m/s 744 mmHg 82%
    21:00 +8°C° 0 mm 3 m/s 745 mmHg 87%
    22:00 +8°C° 0.1 mm 3 m/s 745 mmHg 85%
    23:00 +8°C° 0.1 mm 3 m/s 745 mmHg 84%

    Demain, 7 Juin, Dimanche

    Heure Température Précipitation Vent Pression Humidité
    00:00 +8°C° 0.1 mm 3 m/s 745 mmHg 82%
    01:00 +8°C° 0.7 mm 3 m/s 745 mmHg 86%
    02:00 +7°C° 0.7 mm 4 m/s 745 mmHg 89%
    03:00 +8°C° 0.7 mm 4 m/s 745 mmHg 93%
    04:00 +8°C° 0.8 mm 5 m/s 746 mmHg 93%
    05:00 +8°C° 0.8 mm 6 m/s 746 mmHg 94%
    06:00 +9°C° 0.8 mm 6 m/s 746 mmHg 95%
    07:00 +9°C° 0.5 mm 7 m/s 747 mmHg 94%
    08:00 +9°C° 0.5 mm 8 m/s 748 mmHg 94%
    09:00 +9°C° 0.5 mm 8 m/s 748 mmHg 93%
    10:00 +9°C° 0.2 mm 8 m/s 749 mmHg 93%
    11:00 +8°C° 0.2 mm 9 m/s 750 mmHg 92%
    12:00 +8°C° 0.2 mm 9 m/s 750 mmHg 91%
    13:00 +8°C° 0.1 mm 9 m/s 751 mmHg 90%
    14:00 +8°C° 0.1 mm 9 m/s 751 mmHg 89%
    15:00 +8°C° 0.1 mm 9 m/s 752 mmHg 89%
    16:00 +8°C° 0.1 mm 9 m/s 753 mmHg 87%
    17:00 +8°C° 0.1 mm 9 m/s 753 mmHg 85%
    18:00 +9°C° 0.1 mm 8 m/s 754 mmHg 83%
    19:00 +9°C° 0 mm 8 m/s 754 mmHg 84%
    20:00 +8°C° 0 mm 7 m/s 755 mmHg 86%
    21:00 +7°C° 0 mm 6 m/s 756 mmHg 87%
    22:00 +7°C° 0 mm 6 m/s 756 mmHg 87%
    23:00 +6°C° 0 mm 5 m/s 756 mmHg 86%

    Après-demain, 8 Juin, Lundi

    Heure Température Précipitation Vent Pression Humidité
    00:00 +6°C° 0 mm 5 m/s 756 mmHg 86%
    01:00 +6°C° 0 mm 5 m/s 757 mmHg 86%
    02:00 +5°C° 0 mm 5 m/s 757 mmHg 86%
    03:00 +3°C° 0 mm 5 m/s 757 mmHg 87%
    04:00 +5°C° 0 mm 5 m/s 757 mmHg 84%
    05:00 +6°C° 0 mm 5 m/s 758 mmHg 81%
    06:00 +6°C° 0 mm 5 m/s 758 mmHg 79%
    07:00 +7°C° 0 mm 5 m/s 758 mmHg 75%
    08:00 +8°C° 0 mm 5 m/s 759 mmHg 71%
    09:00 +9°C° 0 mm 6 m/s 759 mmHg 67%
    10:00 +9°C° 0 mm 5 m/s 759 mmHg 66%
    11:00 +9°C° 0 mm 5 m/s 759 mmHg 66%
    12:00 +9°C° 0 mm 5 m/s 760 mmHg 65%
    13:00 +10°C° 0 mm 5 m/s 760 mmHg 65%
    14:00 +10°C° 0 mm 5 m/s 760 mmHg 65%
    15:00 +10°C° 0 mm 5 m/s 760 mmHg 65%
    16:00 +10°C° 0 mm 4 m/s 760 mmHg 66%
    17:00 +10°C° 0 mm 4 m/s 760 mmHg 67%
    18:00 +10°C° 0 mm 4 m/s 760 mmHg 68%
    19:00 +9°C° 0 mm 3 m/s 760 mmHg 73%
    20:00 +7°C° 0 mm 3 m/s 760 mmHg 77%
    21:00 +6°C° 0 mm 2 m/s 761 mmHg 82%
    22:00 +5°C° 0 mm 2 m/s 760 mmHg 83%
    23:00 +5°C° 0 mm 2 m/s 760 mmHg 85%

    9 Juin, Mardi

    Heure Température Précipitation Vent Pression Humidité
    00:00 +4°C° 0 mm 2 m/s 760 mmHg 86%
    01:00 +4°C° 0 mm 2 m/s 760 mmHg 86%
    02:00 +4°C° 0 mm 2 m/s 760 mmHg 86%
    03:00 +4°C° 0 mm 2 m/s 760 mmHg 86%
    04:00 +6°C° 0 mm 1 m/s 760 mmHg 83%
    05:00 +7°C° 0 mm 1 m/s 760 mmHg 80%
    06:00 +9°C° 0 mm 1 m/s 761 mmHg 77%
    07:00 +10°C° 0 mm 1 m/s 761 mmHg 73%
    08:00 +12°C° 0 mm 1 m/s 761 mmHg 69%
    09:00 +14°C° 0 mm 1 m/s 761 mmHg 66%
    10:00 +14°C° 0 mm 1 m/s 761 mmHg 66%
    11:00 +15°C° 0 mm 2 m/s 761 mmHg 66%
    12:00 +15°C° 0 mm 2 m/s 760 mmHg 66%
    13:00 +14°C° 0.1 mm 3 m/s 760 mmHg 69%
    14:00 +14°C° 0.1 mm 3 m/s 760 mmHg 71%
    15:00 +13°C° 0.1 mm 3 m/s 760 mmHg 73%
    16:00 +13°C° 0 mm 3 m/s 760 mmHg 74%
    17:00 +13°C° 0 mm 4 m/s 760 mmHg 75%
    18:00 +13°C° 0 mm 4 m/s 760 mmHg 75%
    19:00 +12°C° 0 mm 3 m/s 760 mmHg 79%
    20:00 +11°C° 0 mm 3 m/s 760 mmHg 83%
    21:00 +9°C° 0 mm 2 m/s 761 mmHg 87%
    22:00 +9°C° 0 mm 2 m/s 761 mmHg 87%
    23:00 +8°C° 0 mm 2 m/s 761 mmHg 87%

    10 Juin, Mercredi

    Heure Température Précipitation Vent Pression Humidité
    00:00 +7°C° 0 mm 2 m/s 761 mmHg 87%
    01:00 +7°C° 0 mm 2 m/s 761 mmHg 88%
    02:00 +7°C° 0 mm 2 m/s 761 mmHg 89%
    03:00 +7°C° 0 mm 3 m/s 760 mmHg 89%
    04:00 +8°C° 0 mm 3 m/s 761 mmHg 87%
    05:00 +9°C° 0 mm 3 m/s 761 mmHg 84%
    06:00 +10°C° 0 mm 3 m/s 761 mmHg 81%
    07:00 +11°C° 0 mm 3 m/s 761 mmHg 77%
    08:00 +13°C° 0 mm 3 m/s 761 mmHg 74%
    09:00 +14°C° 0 mm 3 m/s 761 mmHg 70%
    10:00 +14°C° 0 mm 4 m/s 761 mmHg 70%
    11:00 +15°C° 0 mm 4 m/s 761 mmHg 70%
    12:00 +15°C° 0 mm 4 m/s 761 mmHg 71%
    13:00 +15°C° 0 mm 4 m/s 761 mmHg 72%
    14:00 +15°C° 0 mm 4 m/s 761 mmHg 73%
    15:00 +15°C° 0 mm 4 m/s 761 mmHg 74%
    16:00 +15°C° 0 mm 4 m/s 761 mmHg 75%
    17:00 +15°C° 0 mm 4 m/s 761 mmHg 77%
    18:00 +15°C° 0 mm 4 m/s 761 mmHg 78%
    19:00 +14°C° 0 mm 4 m/s 761 mmHg 81%
    20:00 +13°C° 0 mm 4 m/s 762 mmHg 85%
    21:00 +11°C° 0 mm 4 m/s 762 mmHg 88%
    22:00 +11°C° 0 mm 3 m/s 762 mmHg 89%
    23:00 +11°C° 0 mm 3 m/s 762 mmHg 91%

    11 Juin, Jeudi

    Heure Température Précipitation Vent Pression Humidité
    00:00 +10°C° 0 mm 3 m/s 762 mmHg 92%
    01:00 +10°C° 0 mm 3 m/s 762 mmHg 92%
    02:00 +10°C° 0 mm 3 m/s 762 mmHg 92%
    03:00 +10°C° 0 mm 2 m/s 762 mmHg 92%
    04:00 +12°C° 0 mm 2 m/s 762 mmHg 90%
    05:00 +13°C° 0 mm 2 m/s 762 mmHg 89%
    06:00 +14°C° 0 mm 2 m/s 762 mmHg 87%
    07:00 +15°C° 0 mm 1 m/s 762 mmHg 82%
    08:00 +18°C° 0 mm 1 m/s 763 mmHg 77%
    09:00 +20°C° 0 mm 1 m/s 763 mmHg 72%
    10:00 +20°C° 0 mm 1 m/s 763 mmHg 71%
    11:00 +20°C° 0 mm 2 m/s 763 mmHg 70%
    12:00 +20°C° 0 mm 2 m/s 763 mmHg 69%
    13:00 +20°C° 0 mm 2 m/s 763 mmHg 70%
    14:00 +20°C° 0 mm 2 m/s 763 mmHg 70%
    15:00 +20°C° 0 mm 2 m/s 762 mmHg 70%
    16:00 +20°C° 0 mm 2 m/s 762 mmHg 72%
    17:00 +19°C° 0 mm 2 m/s 762 mmHg 74%
    18:00 +19°C° 0 mm 2 m/s 762 mmHg 75%
    19:00 +18°C° 0 mm 1 m/s 763 mmHg 79%
    20:00 +16°C° 0 mm 1 m/s 763 mmHg 83%
    21:00 +14°C° 0 mm 1 m/s 763 mmHg 87%
    22:00 +12°C° 0 mm 0 m/s 763 mmHg 87%
    23:00 +12°C° 0 mm 0 m/s 763 mmHg 88%
    Voir plus